Location: Newark
(55.1520°N, 2.9990°W)
Time: 04:02:23
(UTC+00:00)

N. Korean satellite - Pass Details

Date: 25 September 2020
Orbit: 453 x 505 km, 97.2° (Epoch: 21 October)

Event Time Altitude Azimuth Distance (km) Brightness Sun altitude
Rises 05:16:00 0° 21° (NNE) 2,610 10.7 -7.6°
Reaches altitude 10° 05:18:18 10° 32° (NNE) 1,714 10.0 -7.3°
Maximum altitude 05:21:35 30° 95° (E) 913 8.9 -6.8°
Drops below altitude 10° 05:24:48 10° 158° (SSE) 1,676 9.5 -6.4°
Sets 05:27:01 0° 169° (S) 2,542 10.3 -6.1°
